Location: Crescent
(42.8242°N, 73.7329°W)
Time: 02:19:07
(UTC+00:00)

Tiros 1 - Pass Details

Date: 21 February 2026
Orbit: 618 x 649 km, 48.4° (Epoch: 13 March)

Event Time Altitude Azimuth Distance (km) Brightness Sun altitude
Rises 15:59:06 0° 291° (WNW) 2,905 10.2 34.5°
Reaches altitude 10° 16:01:30 10° 297° (WNW) 1,993 9.4 34.6°
Maximum altitude 16:05:56 48° 12° (NNE) 817 7.7 34.9°
Drops below altitude 10° 16:10:20 10° 87° (E) 1,979 9.9 35.2°
Sets 16:12:42 0° 93° (E) 2,882 10.7 35.3°
